User: anonymous   Login
Location: Unspecified
(0.0000°N, 0.0000°E)
Time: 10:36:59
(UTC+00:00)
Language:

USA 229 DEB - Orbit

View from above orbital plane
View from above orbital plane
View from above satellite
View from above satellite

Ground track
Ground track

The orbit data is extracted from the following two-line orbital elements,

1 37391U 11014B   18171.90787942 0.00000000  00000-0  00000-0 0    07
2 37391  63.4426 158.0015 0100000   1.3020 358.6980 13.40755548    08
Epoch (UTC): 20 June 2018 21:47:20
Eccentricity: 0.0100000
inclination: 63.4426°
perigee height: 1031 km
apogee height: 1181 km
right ascension of ascending node: 158.0015°
argument of perigee: 1.3020°
revolutions per day: 13.40755548
mean anomaly at epoch: 358.6980°
orbit number at epoch: 0

The dashed part of the orbit path shows where the satellite is in the earth's shadow,  

DLR